Temperature
19 19 19 19 19 19 19 19 19 19 19 19 19 18 18 18 18 18 18 18 18 18 18 18 18 18 18 18 18 18 18 18 18 18 18 18 18 18 18 18 18 18 18
19 19 19 19 19 19 19 19 19 19 19 19 19 18 18 18 18 18 18 18 18 18 18 18 18 18 18 18 18 18 18 18 18 18 18 18 18 18 18 18 18 18 17
20 19 19 19 19 19 19 19 19 19 19 19 19 18 18 18 18 18 18 18 18 18 18 18 18 18 18 18 18 18 18 18 18 18 18 18 18 18 18 18 18 17 17
20 20 19 19 19 19 18 19 19 19 19 18 19 19 18 18 18 18 18 18 18 18 18 18 18 18 18 18 18 18 18 18 18 18 18 18 18 18 18 18 18 18 17
20 20 19 19 19 19 19 18 19 19 18 18 19 18 18 18 18 18 18 18 18 18 18 18 18 18 18 18 18 18 18 18 18 18 18 18 18 18 18 18 18 18 17
20 20 19 19 19 19 19 18 18 19 19 19 18 18 18 18 18 18 18 18 18 18 18 18 18 18 18 18 18 18 18 18 18 18 18 18 18 18 18 18 18 18 17
20 20 19 19 19 19 19 19 19 19 19 19 19 19 19 18 18 18 18 18 18 18 18 18 18 18 18 18 18 18 18 18 18 18 18 18 18 18 18 18 18 18 17
20 20 20 19 19 19 19 19 19 19 19 19 19 19 19 19 19 18 18 18 18 18 18 18 18 18 18 18 18 18 18 18 18 18 18 18 18 18 18 18 18 18 17
20 20 20 20 19 19 19 19 19 19 19 19 19 19 19 19 19 18 18 19 18 18 18 18 18 18 18 18 18 18 18 18 18 18 18 18 18 18 18 18 18 18 17
20 20 20 20 19 19 19 19 19 19 19 19 19 19 19 19 19 19 19 19 18 18 18 18 18 18 18 18 18 18 18 18 18 18 18 18 18 18 18 18 18 18 18
20 20 20 20 20 19 19 19 19 19 19 19 19 19 19 18 18 19 19 18 18 18 18 18 18 18 18 18 18 18 18 18 18 18 18 18 18 18 18 18 18 18 18
20 20 20 19 19 19 19 19 19 19 19 18 19 18 18 18 18 18 18 18 18 18 18 18 18 18 18 18 18 18 18 18 18 18 18 18 18 18 18 18 18 18 18
20 20 20 20 19 19 19 19 19 19 19 18 18 19 18 18 18 18 18 18 18 18 18 18 18 18 18 18 18 18 18 18 18 18 18 18 18 18 18 18 18 18 17
20 20 20 19 19 19 19 19 19 19 19 19 19 19 19 18 18 18 18 18 18 18 18 18 18 18 18 18 18 18 18 18 18 18 18 18 18 18 18 18 18 18 17
20 20 20 20 19 19 19 19 19 19 19 19 19 19 19 19 18 18 18 18 18 18 18 18 18 18 18 18 18 18 18 18 18 18 18 18 18 18 18 18 18 17 17
21 20 20 20 20 19 19 19 19 19 19 19 19 19 19 19 19 18 18 18 18 18 18 18 18 18 18 18 18 18 18 18 18 18 18 18 18 18 18 17 17 17 17
21 20 20 20 20 20 19 19 19 19 19 19 19 19 19 19 19 19 19 19 19 18 18 18 18 19 18 18 18 18 18 18 18 18 18 18 18 17 17 17 17 17 17
21 21 20 20 20 20 20 19 19 19 19 19 19 19 19 19 19 19 19 19 19 18 18 18 18 18 18 18 18 18 18 18 18 18 18 18 17 17 17 17 17 17 17
21 21 21 20 20 20 19 19 19 19 19 19 19 19 19 19 19 19 19 19 19 18 18 18 18 18 18 18 18 18 18 18 18 18 18 18 17 17 17 17 17 17 17
22 21 21 21 20 20 20 19 19 19 19 19 19 19 19 19 19 19 19 19 19 18 18 18 18 18 18 18 18 18 18 18 18 18 18 17 17 17 17 17 17 17 16
22 21 21 21 20 20 20 20 19 19 19 19 19 19 19 19 19 19 19 19 19 19 19 18 18 18 18 18 18 18 18 18 18 18 17 17 17 17 17 17 16 16 16
22 22 21 21 21 20 20 20 20 19 19 19 19 19 19 19 19 19 19 19 19 19 19 18 18 18 18 18 18 18 17 17 17 17 17 17 17 17 17 16 16 16 16
22 22 22 21 21 20 20 20 20 19 19 19 19 19 19 19 19 19 19 19 19 19 19 19 18 18 18 18 18 18 17 17 17 17 17 17 17 17 17 16 16 16 16
23 22 22 21 21 21 20 20 20 20 20 20 20 19 19 19 19 19 19 19 19 19 19 19 18 18 18 18 18 18 18 18 17 17 17 17 16 16 16 16 16 16 16
23 23 22 22 21 21 21 21 20 20 20 20 20 19 19 19 19 19 19 19 19 19 19 19 18 18 18 18 18 18 17 17 17 17 16 16 16 16 16 16 16 16 16
23 23 22 22 22 21 21 21 21 20 20 20 20 20 20 19 19 19 19 19 19 19 19 19 18 18 18 18 18 17 17 17 17 17 17 16 16 16 16 16 16 16 16
Wind_Speed
1 2 5 8 9 10 11 12 13 13 14 16 17 18 19 20 20 21 22 22 23 23 23 23 23 23 23 22 22 22 21 20 19 19 18 18 17 17 17 17 17 15 18
4 4 7 8 10 11 12 13 15 15 16 17 17 18 19 20 21 21 21 22 22 22 22 22 22 22 22 21 21 21 20 20 19 18 17 16 17 17 17 16 15 14 17
6 6 7 9 11 12 13 14 15 16 17 17 17 18 19 19 20 21 21 21 21 22 22 21 22 21 21 20 20 20 19 18 18 17 16 13 15 16 16 16 16 17 16
7 7 9 11 12 13 13 14 15 16 16 17 18 18 19 19 20 20 21 20 20 21 21 21 21 20 20 19 18 18 17 17 17 16 12 12 13 15 16 15 16 16 16
6 7 10 13 13 13 13 14 14 15 16 17 18 18 18 19 19 20 20 19 20 20 20 20 20 19 18 18 17 16 16 16 15 13 11 11 12 15 16 16 16 15 15
6 7 11 13 13 13 13 13 14 15 15 16 17 17 18 18 18 19 19 18 19 19 19 19 18 17 17 17 16 15 14 13 12 11 11 12 12 15 16 16 15 15 14
7 7 10 12 13 13 13 13 13 14 14 15 16 16 17 17 17 17 17 17 17 17 17 17 17 16 15 15 14 13 12 11 11 10 10 11 13 15 16 15 15 14 14
8 7 10 12 12 12 12 12 13 13 13 14 15 16 16 16 16 16 16 15 16 16 16 15 15 14 13 12 11 11 11 11 11 10 9 11 14 15 15 15 14 14 13
8 7 7 9 10 11 11 12 12 12 12 13 14 14 15 15 15 15 15 15 15 14 14 13 13 12 11 10 9 10 11 11 10 10 10 10 13 15 15 14 14 13 13
7 6 5 6 7 7 9 10 11 11 12 13 13 14 14 14 14 14 13 13 13 13 12 11 11 10 9 7 7 9 10 11 10 10 9 11 14 14 14 14 14 13 12
7 5 5 5 6 7 7 9 10 10 11 12 12 13 12 10 10 10 11 12 12 12 10 9 8 8 7 5 5 7 8 9 10 9 9 12 14 14 14 13 13 13 12
7 6 6 6 5 6 7 7 7 7 8 8 8 9 8 8 8 9 11 12 12 11 9 8 7 6 4 3 3 5 6 10 9 9 10 13 14 14 14 13 13 13 12
8 7 6 6 5 5 4 6 5 5 6 6 6 8 8 7 7 7 7 8 8 8 5 5 4 3 3 3 2 4 6 8 8 8 11 14 14 15 14 13 13 13 13
7 7 6 6 5 5 5 5 5 4 4 4 6 8 7 5 4 5 4 5 5 5 4 3 3 3 3 3 3 5 7 6 7 8 11 15 15 15 14 14 13 13 13
8 7 6 7 7 5 5 4 5 4 4 5 6 7 8 5 4 4 4 4 5 5 4 3 3 2 2 2 3 5 5 7 8 9 9 12 14 14 14 14 13 12 12
8 7 6 7 6 6 5 4 4 4 5 5 6 7 8 7 5 4 4 3 3 4 5 4 3 3 2 2 3 4 5 7 8 9 9 10 12 12 12 12 12 12 12
10 8 7 7 6 6 5 4 4 4 5 5 5 6 7 8 6 5 3 3 3 4 4 3 2 2 2 2 2 3 4 5 7 8 8 8 9 11 12 13 12 12 12
10 9 8 8 7 6 4 4 3 4 4 3 5 5 7 7 7 5 3 2 3 3 3 2 2 2 2 2 2 2 2 3 5 6 7 8 8 8 10 11 11 11 11
11 10 8 7 7 6 5 4 4 3 3 3 4 4 5 6 7 5 3 2 3 2 2 2 2 3 2 2 1 2 2 2 3 5 5 6 7 7 7 9 10 10 10
11 10 9 8 7 6 4 3 2 2 2 2 3 4 5 5 6 5 3 2 3 2 2 2 2 2 2 2 2 2 1 1 2 2 3 4 6 7 7 7 7 7 8
10 9 9 8 7 5 4 3 3 2 1 1 2 4 5 5 6 5 3 2 2 3 3 3 3 2 1 2 3 2 2 1 1 1 1 2 2 4 6 6 6 5 5
12 10 9 9 8 6 5 4 3 3 2 2 2 3 5 5 5 5 4 3 3 3 2 2 3 2 1 2 3 2 1 2 2 0 1 1 2 2 3 5 6 6 5
12 12 11 9 7 6 5 3 2 2 1 0 1 2 3 5 5 5 5 4 3 3 3 3 3 4 2 1 2 3 3 2 1 2 1 1 1 2 2 3 5 6 6
13 11 10 10 9 7 6 5 4 4 3 3 3 3 3 3 4 5 5 5 4 3 3 3 3 3 4 2 1 1 2 4 2 1 2 1 1 1 2 2 3 4 5
14 12 10 10 9 8 7 7 6 4 3 2 2 3 3 2 4 5 5 5 4 4 4 3 3 3 3 3 2 1 1 1 2 2 1 1 1 1 1 2 2 3 4
12 12 11 11 9 8 8 8 7 6 5 4 3 3 3 2 2 3 4 5 4 4 4 4 3 4 3 3 2 2 3 2 2 2 2 2 1 2 1 1 2 2 4
Wind_Direction
164 118 92 90 86 82 78 73 73 81 91 92 94 99 100 102 105 107 109 111 113 115 116 117 118 119 120 119 120 120 121 121 123 124 124 124 123 123 122 120 119 120 123
152 129 105 98 93 88 84 79 78 86 94 95 96 99 101 104 106 108 110 112 115 116 117 117 118 120 121 121 122 122 121 120 121 122 122 123 124 124 124 124 123 126 127
134 126 113 105 100 94 88 84 83 90 96 96 96 100 103 105 109 111 112 114 116 118 118 118 118 119 119 121 122 122 121 121 120 119 117 117 122 124 126 125 126 128 130
134 131 121 112 106 98 93 91 91 92 95 98 99 100 102 104 108 112 114 115 117 119 119 120 120 120 120 120 121 122 122 122 122 120 116 117 122 124 125 125 127 129 131
127 130 124 116 112 107 101 96 95 96 98 102 103 103 105 107 110 113 115 117 118 120 121 122 123 123 123 123 123 124 123 122 122 118 114 117 122 128 129 128 130 132 133
119 127 125 119 116 113 108 102 100 100 102 104 108 109 109 110 113 115 116 118 119 121 123 124 125 124 124 124 125 127 126 123 120 116 118 122 128 134 133 133 134 134 135
120 123 125 121 119 117 113 110 108 107 107 110 113 114 114 113 115 116 118 120 121 123 126 127 127 126 126 125 126 130 128 124 120 121 124 130 135 137 137 138 138 139 139
130 129 129 125 123 123 121 118 116 115 115 116 118 118 117 117 118 119 122 123 124 124 127 129 130 129 129 129 127 130 130 127 130 133 130 137 142 143 143 143 143 143 144
131 130 128 129 130 131 129 126 124 123 124 124 124 125 124 123 123 123 124 125 127 128 129 131 133 134 135 135 134 133 135 132 132 134 141 144 148 149 150 151 149 149 151
133 132 130 131 133 139 139 136 132 130 133 133 133 134 133 132 131 131 131 132 134 135 136 138 139 142 143 144 139 137 138 135 135 140 148 156 156 157 158 158 157 157 158
141 146 143 142 150 152 151 146 141 137 138 141 142 142 140 138 139 141 144 143 144 145 147 149 151 155 157 157 151 147 139 142 141 145 158 165 165 165 165 165 164 165 167
151 158 158 159 164 164 158 152 155 146 143 145 153 151 150 154 159 156 157 156 157 159 160 165 173 175 175 176 164 143 137 143 145 157 169 171 172 174 174 173 173 174 175
155 154 159 160 162 162 151 154 166 161 158 165 168 169 168 167 169 165 165 164 166 169 174 181 187 193 192 178 154 145 141 142 152 165 175 179 181 183 182 182 184 183 184
148 152 153 151 146 145 145 152 165 164 167 172 173 170 164 160 160 168 172 176 183 184 181 191 194 201 195 187 172 151 147 152 162 170 178 184 186 188 188 190 192 192 191
141 142 142 138 133 128 127 142 151 159 165 171 160 163 161 152 157 161 173 179 186 183 182 184 185 188 184 172 163 150 147 160 168 167 174 182 186 190 192 195 196 197 197
145 148 147 138 131 124 127 132 140 156 162 157 155 157 155 154 156 156 156 161 173 177 185 185 178 170 171 159 154 150 150 156 165 170 176 183 189 190 192 197 201 204 205
152 152 151 144 133 128 130 130 133 147 148 149 157 156 152 151 152 149 146 152 168 168 170 166 148 126 133 134 140 152 149 151 162 173 179 180 190 198 199 200 204 211 212
149 149 153 146 137 133 132 119 120 133 135 154 159 157 153 151 152 148 149 161 160 146 145 141 124 101 100 106 121 149 150 154 166 171 177 182 189 197 204 205 206 211 216
156 154 155 149 147 146 141 131 127 126 130 154 157 161 164 161 158 151 159 172 153 140 147 154 132 136 136 121 126 138 155 167 176 177 178 183 190 195 200 210 210 213 217
159 156 154 155 157 150 137 119 106 105 124 144 154 169 171 171 164 155 161 175 157 141 147 146 140 134 144 144 116 88 120 183 169 175 186 178 187 195 199 202 211 219 220
158 157 157 155 161 151 140 139 138 152 162 158 172 174 172 173 165 156 154 155 148 148 166 159 138 122 113 117 89 53 25 21 144 188 188 170 181 186 189 196 196 200 215
169 166 162 164 167 165 163 162 163 158 169 175 186 183 183 176 174 168 158 160 155 148 145 145 135 131 159 139 128 115 34 355 351 261 192 177 175 167 185 200 194 192 203
174 174 171 168 167 169 163 143 125 96 67 91 177 193 198 183 173 163 159 157 157 156 162 167 155 148 164 194 157 149 158 212 273 321 293 200 168 169 187 185 188 194 201
180 174 166 168 168 170 162 157 157 164 180 201 193 190 194 185 171 163 163 161 159 155 157 170 155 149 146 168 225 201 179 162 162 261 321 303 215 177 186 187 171 175 186
176 174 171 168 174 177 171 173 171 180 190 192 177 165 177 184 180 173 165 157 157 161 163 161 152 150 155 162 177 180 147 128 148 161 226 283 318 299 192 193 167 162 172
175 175 174 173 180 181 177 177 179 180 183 177 186 182 188 190 190 181 166 162 167 167 170 172 165 162 171 170 172 168 165 165 181 170 193 222 238 273 264 190 165 160 170
Height
1513 1511 1510 1508 1506 1503 1500 1496 1491 1487 1488 1490 1491 1493 1494 1494 1495 1498 1500 1502 1504 1506 1508 1511 1514 1516 1518 1520 1523 1525 1527 1529 1531 1533 1535 1537 1539 1540 1542 1543 1544 1545 1546
1513 1512 1511 1509 1507 1505 1502 1498 1493 1490 1491 1493 1495 1496 1497 1498 1500 1502 1504 1506 1508 1511 1513 1515 1517 1520 1522 1524 1526 1528 1530 1532 1534 1536 1537 1539 1541 1542 1543 1544 1545 1546 1547
1513 1512 1511 1510 1509 1507 1505 1502 1498 1496 1497 1498 1499 1500 1501 1502 1504 1506 1508 1510 1512 1514 1517 1519 1521 1523 1525 1527 1529 1531 1533 1535 1537 1538 1539 1541 1542 1544 1545 1546 1547 1548 1549
1513 1513 1512 1511 1510 1509 1508 1506 1504 1503 1502 1503 1503 1504 1505 1506 1508 1509 1511 1514 1516 1518 1520 1522 1524 1526 1528 1530 1532 1534 1536 1538 1539 1540 1542 1543 1544 1546 1547 1547 1548 1548 1550
1514 1514 1513 1512 1512 1511 1510 1509 1508 1507 1507 1507 1507 1508 1509 1510 1512 1513 1515 1517 1519 1521 1523 1525 1527 1529 1531 1533 1535 1536 1538 1540 1542 1543 1544 1545 1546 1547 1548 1549 1549 1550 1551
1515 1515 1514 1514 1514 1513 1513 1512 1511 1510 1510 1510 1511 1512 1513 1514 1515 1517 1519 1521 1522 1524 1526 1528 1530 1532 1534 1536 1537 1539 1540 1542 1544 1545 1546 1547 1548 1549 1549 1550 1551 1552 1553
1516 1516 1516 1516 1515 1515 1515 1514 1514 1513 1513 1514 1515 1515 1516 1518 1519 1520 1522 1524 1525 1527 1529 1531 1533 1535 1537 1538 1540 1541 1543 1544 1545 1546 1547 1548 1549 1550 1551 1551 1552 1553 1554
1518 1518 1518 1518 1517 1517 1517 1516 1516 1516 1516 1517 1518 1518 1519 1521 1522 1524 1525 1527 1528 1530 1532 1534 1535 1537 1539 1541 1542 1544 1545 1546 1547 1548 1549 1550 1551 1551 1552 1553 1553 1554 1555
1520 1519 1519 1519 1519 1519 1518 1519 1519 1518 1519 1519 1520 1522 1523 1524 1525 1527 1528 1529 1531 1533 1535 1537 1538 1540 1542 1543 1545 1546 1547 1548 1548 1550 1550 1551 1552 1552 1553 1553 1554 1555 1555
1521 1521 1521 1521 1520 1520 1520 1520 1520 1520 1521 1522 1523 1524 1525 1527 1528 1529 1531 1532 1534 1536 1538 1539 1541 1542 1544 1545 1547 1548 1548 1549 1550 1551 1551 1552 1552 1553 1554 1554 1555 1555 1556
1522 1522 1522 1522 1522 1522 1522 1522 1522 1523 1523 1524 1525 1526 1528 1529 1530 1532 1534 1535 1537 1538 1540 1541 1543 1544 1546 1547 1548 1549 1549 1550 1551 1552 1552 1552 1553 1554 1554 1554 1555 1555 1556
1523 1523 1524 1523 1523 1523 1523 1524 1524 1525 1526 1526 1527 1529 1530 1531 1533 1534 1536 1538 1539 1540 1542 1543 1545 1546 1547 1548 1549 1550 1550 1551 1552 1552 1553 1553 1553 1554 1554 1554 1555 1555 1556
1523 1524 1524 1524 1524 1524 1524 1525 1526 1526 1527 1528 1529 1530 1531 1533 1534 1536 1538 1539 1541 1542 1543 1545 1546 1547 1548 1549 1550 1550 1551 1551 1552 1552 1553 1553 1553 1553 1554 1554 1554 1555 1555
1524 1524 1525 1525 1524 1525 1526 1527 1527 1528 1529 1530 1531 1532 1533 1534 1536 1537 1539 1540 1542 1543 1544 1545 1547 1548 1549 1550 1550 1551 1551 1552 1552 1552 1552 1553 1553 1553 1553 1553 1553 1554 1554
1524 1524 1525 1525 1525 1526 1527 1528 1529 1529 1530 1531 1532 1533 1534 1535 1537 1538 1539 1541 1542 1543 1545 1546 1547 1548 1549 1549 1550 1550 1551 1551 1552 1552 1552 1552 1552 1552 1552 1553 1553 1553 1553
1524 1525 1525 1526 1526 1527 1528 1528 1529 1530 1531 1532 1533 1534 1535 1536 1537 1539 1540 1541 1542 1544 1545 1546 1547 1548 1548 1549 1550 1550 1550 1551 1551 1551 1551 1551 1551 1551 1551 1551 1551 1551 1552
1524 1525 1526 1526 1527 1528 1529 1529 1530 1531 1532 1533 1534 1535 1536 1537 1538 1539 1540 1541 1543 1544 1545 1546 1547 1548 1548 1549 1549 1549 1550 1550 1550 1550 1550 1550 1550 1550 1550 1550 1550 1550 1550
1525 1526 1526 1527 1528 1528 1529 1530 1530 1532 1532 1533 1534 1535 1536 1537 1538 1539 1540 1541 1543 1544 1545 1546 1546 1547 1547 1548 1548 1548 1548 1549 1549 1549 1549 1549 1549 1549 1549 1549 1549 1549 1549
1525 1526 1527 1527 1528 1528 1529 1530 1531 1532 1533 1534 1535 1536 1537 1538 1539 1540 1541 1542 1542 1543 1544 1545 1546 1546 1546 1547 1547 1547 1547 1547 1547 1548 1548 1548 1548 1548 1547 1547 1547 1547 1547
1524 1526 1526 1527 1528 1529 1529 1530 1531 1532 1533 1534 1535 1536 1537 1538 1539 1540 1541 1541 1542 1543 1544 1544 1545 1545 1545 1546 1546 1546 1546 1546 1546 1546 1546 1546 1546 1546 1546 1545 1545 1545 1545
1524 1525 1526 1527 1528 1529 1529 1530 1531 1532 1533 1534 1535 1536 1537 1538 1539 1540 1540 1541 1541 1542 1543 1543 1544 1544 1544 1544 1545 1545 1545 1545 1545 1545 1545 1544 1544 1544 1544 1544 1543 1543 1543
1522 1524 1525 1526 1527 1529 1529 1530 1531 1533 1534 1534 1535 1536 1537 1538 1539 1539 1539 1540 1541 1541 1542 1542 1542 1543 1543 1543 1544 1544 1544 1545 1544 1544 1543 1543 1543 1543 1542 1542 1542 1541 1541
1521 1522 1524 1526 1528 1529 1530 1531 1532 1533 1533 1534 1534 1535 1536 1537 1538 1539 1539 1539 1540 1540 1540 1541 1541 1541 1541 1542 1542 1543 1543 1542 1543 1543 1542 1542 1542 1541 1541 1541 1540 1540 1539
1519 1521 1523 1525 1527 1528 1529 1530 1531 1531 1532 1533 1534 1535 1536 1537 1537 1538 1538 1538 1539 1539 1539 1539 1540 1540 1540 1540 1541 1541 1542 1541 1541 1541 1541 1541 1540 1540 1540 1539 1538 1538 1538
1517 1519 1522 1524 1525 1527 1528 1529 1530 1531 1532 1533 1534 1534 1535 1536 1536 1537 1537 1537 1537 1538 1538 1538 1538 1538 1538 1539 1539 1539 1540 1540 1539 1539 1539 1539 1539 1538 1538 1537 1537 1536 1536
1515 1518 1520 1522 1524 1526 1527 1528 1529 1530 1531 1532 1533 1533 1534 1534 1535 1536 1536 1536 1536 1536 1536 1537 1537 1537 1537 1537 1537 1537 1537 1537 1537 1537 1537 1537 1537 1537 1536 1536 1535 1535 1534